IU2GFL-13 Weather Reports


Display with metric or nautical units.
time (UTC)temp
F
wind
direction
speed
MPH
gust
MPH
rain 1hr
in
rain 24hr
in
rain mn
in
humidity
%
barometer
mb
20260505005900 59 0.0 0.0 0.00 0.00 0.00 57 990.5
20260505003855 59 0.0 0.0 0.00 0.00 0.00 57 991.0
20260505001851 59 0.0 0.0 0.00 0.00 0.00 57 991.3
20260504235846 59 0.0 0.0 0.00 0.00 0.00 57 991.6
20260504233842 59 0.0 0.0 0.00 0.00 0.00 57 991.8
20260504231837 60 0.0 0.0 0.00 0.00 0.00 55 992.0
20260504225832 61 0.0 0.0 0.00 0.00 0.00 55 992.0
20260504223827 61 0.0 0.0 0.00 0.00 0.00 55 992.3
20260504221822 61 0.0 0.0 0.00 0.00 0.00 55 992.2
20260504215817 62 0.0 0.0 0.00 0.00 0.00 55 992.5
20260504213812 62 0.0 0.0 0.00 0.00 0.00 55 992.8
20260504211808 62 0.0 0.0 0.00 0.00 0.00 54 992.8
20260504205803 63 0.0 0.0 0.00 0.00 0.00 53 992.9
20260504203758 63 0.0 0.0 0.00 0.00 0.00 53 993.0
20260504201753 64 0.0 0.0 0.00 0.00 0.00 51 992.8
20260504195748 65 0.0 0.0 0.00 0.00 0.00 50 992.7
20260504193744 66 0.0 0.0 0.00 0.00 0.00 49 992.5
20260504191739 66 0.0 0.0 0.00 0.00 0.00 48 992.5
20260504185735 67 0.0 0.0 0.00 0.00 0.00 46 992.3
20260504183730 68 0.0 0.0 0.00 0.00 0.00 45 992.2
20260504181725 70 0.0 0.0 0.00 0.00 0.00 43 992.1
20260504175721 71 0.0 0.0 0.00 0.00 0.00 41 992.0
20260504173716 72 0.0 0.0 0.00 0.00 0.00 40 992.0
20260504171712 73 0.0 0.0 0.00 0.00 0.00 38 992.1
20260504081459 76 0.0 0.0 0.00 0.00 0.00 34 994.3
20260504045409 70 0.0 0.0 0.00 0.00 0.00 45 993.6
20260504043404 59 0.0 0.0 0.00 0.00 0.00 58 993.5
20260504035353 58 0.0 0.0 0.00 0.00 0.00 58 993.2
20260504033348 59 0.0 0.0 0.00 0.00 0.00 58 993.1
20260504031344 59 0.0 0.0 0.00 0.00 0.00 58 993.2
20260504021329 60 0.0 0.0 0.00 0.00 0.00 55 993.3
20260504015324 61 0.0 0.0 0.00 0.00 0.00 55 993.2
20260504013319 61 0.0 0.0 0.00 0.00 0.00 56 993.3